[[{"header":{"parameterUnit":"m.s-1","parameterCategory":1,"la1":30.2991,"la2":30.254,"lo1":-89.0895,"lo2":-89.0444,"dy":0.0017,"dx":0.0017,"nx":28,"ny":28,"refTime":"2024-08-02T21:00:00:Z","depth":0,"parameterNumber":2,"parameterNumberName":"U-component_of_WINDS"},"data":[0,0,0,0,0,0,0,0,0,0,0,0,0,0,0,0,0,0,0,0,0,0,0,0,0,0,0,0,0,0,0,0,0,0,0,0,0,0,0,0,0,0,0,0,0,0,0,0,0,0,0,0,0,0,0,0,0,0,0.2378,0.238,0,0.2575,0.2577,0.258,0.2672,0.2672,0.2672,0.2671,0.2877,0.2883,0.2888,0,0,0,0,0,0,0,0,0,0,0,0,0,0.2083,0.2088,0.2378,0.238,0.2383,0.2575,0.2577,0.258,0.2672,0.2672,0.2672,0.2671,0.2875,0.2882,0.2889,0,0,0,0,0,0,0,0,0,0,0,0,0,0.2239,0.209,0.2377,0.2451,0.246,0.2574,0.2578,0.2581,0.2672,0.2672,0.2671,0.2671,0.2873,0.2881,0.289,0.2946,0,0,0.2915,0.2919,0,0,0,0,0,0,0,0,0.223,0.225,0.2438,0.2447,0.2456,0.2599,0.2549,0.2703,0.2672,0.2592,0.2671,0.2671,0.2785,0.28,0.2838,0.2955,0.2964,0.2916,0.2921,0.2925,0.2927,0,0,0,0,0,0,0,0.2219,0.2242,0.2456,0.2441,0.2452,0.2476,0.2498,0.2579,0.2687,0.2599,0.2606,0.2628,0.279,0.283,0.2844,0.2967,0.2916,0.2923,0.2928,0.2932,0.3141,0.3142,0,0,0,0,0,0,0.2196,0.2232,0.245,0.2462,0.234,0.2481,0.2506,0.2553,0.2686,0.2707,0.2628,0.2631,0.2815,0.2834,0.2851,0.2926,0.2925,0.2933,0.2937,0.3141,0.3141,0.3142,0,0,0,0,0,0,0.2189,0.2214,0.2442,0.2349,0.238,0.2487,0.2539,0.2557,0.2597,0.2708,0.2728,0.2648,0.2816,0.2839,0.2921,0.2935,0.2936,0.2944,0.314,0.3141,0.3142,0.3077,0,0,0,0,0,0,0.218,0.2211,0.2233,0.2349,0.2384,0.2508,0.254,0.2561,0.2611,0.2618,0.2733,0.2752,0.2818,0.2908,0.293,0.2946,0.2951,0.314,0.3141,0.3141,0.3078,0.3075,0.3072,0,0,0,0,0,0.2169,0.2208,0.2234,0.2259,0.2414,0.2508,0.2529,0.2602,0.2612,0.2635,0.2706,0.2748,0.2929,0.2916,0.2941,0.296,0.3139,0.314,0.3141,0.3079,0.3076,0.3072,0,0,0,0,0,0,0.2092,0.2224,0.2255,0.2331,0.2407,0.2523,0.2555,0.2596,0.2672,0.2675,0.2764,0.279,0.2864,0.2921,0.2903,0.3022,0.3038,0.3044,0.2982,0.298,0.2977,0.2962,0.2958,0,0,0,0,0,0.2083,0.2148,0.2261,0.2317,0.2354,0.2447,0.2492,0.2541,0.2625,0.2658,0.2735,0.2815,0.2891,0.2938,0.3013,0.3086,0.3113,0.3112,0.3109,0.3106,0.3111,0.3154,0.3155,0.3146,0.3146,0.3146,0,0,0.2068,0.2148,0.2183,0.2304,0.2369,0.2435,0.2474,0.2543,0.2593,0.2669,0.2751,0.281,0.2906,0.2983,0.3021,0.3032,0.3119,0.3108,0.3104,0.3111,0.3155,0.3156,0.3156,0.3147,0.3147,0.3146,0,0,0.2072,0.2139,0.2193,0.2257,0.2355,0.2417,0.243,0.254,0.2582,0.2665,0.2723,0.2785,0.2912,0.2978,0.3027,0.3055,0.3097,0.3078,0.3063,0.3104,0.3105,0.3106,0.3117,0.312,0.3082,0.3082,0.3081,0,0.204,0.2141,0.2217,0.2282,0.2333,0.2403,0.246,0.2519,0.2636,0.2671,0.2681,0.2842,0.2911,0.3005,0.3012,0.305,0.3068,0.3065,0.3099,0.31,0.3103,0.3114,0.3118,0.3079,0.3079,0.3079,0.3079,0,0.2097,0.2166,0.2198,0.2309,0.2364,0.2424,0.251,0.2557,0.2602,0.2663,0.2747,0.2832,0.2926,0.2952,0.2997,0.3052,0.3056,0.3081,0.31,0.3099,0.3111,0.3116,0.3074,0.3075,0.3076,0.3077,0,0,0.2059,0.221,0.2221,0.2272,0.2384,0.2439,0.2503,0.2593,0.2632,0.271,0.2767,0.2872,0.2896,0.2952,0.3005,0.3041,0.3058,0.3063,0.3066,0.3059,0.3126,0.3107,0.311,0.3086,0.3087,0.3088,0.3118,0,0.208,0.2196,0.2266,0.2354,0.2419,0.2486,0.2542,0.2617,0.2676,0.274,0.2805,0.2879,0.2904,0.2939,0.2977,0.3048,0.3073,0.3047,0.3141,0.3143,0.3115,0.3117,0.3097,0.3121,0.3123,0.3124,0.3125,0,0.212,0.2195,0.2289,0.2394,0.2424,0.2473,0.2561,0.2621,0.2708,0.2749,0.2811,0.2864,0.2934,0.2946,0.3045,0.3025,0.3068,0.3108,0.3111,0.3124,0.3134,0.313,0.313,0.3134,0.3133,0.3132,0.3132,0,0.2083,0.2209,0.2282,0.2323,0.2447,0.248,0.2533,0.262,0.2669,0.2747,0.278,0.2865,0.2912,0.2977,0.3051,0.3053,0.3143,0.3161,0.318,0.3178,0.3197,0.3195,0.3204,0.3222,0.3222,0.3222,0.3222,0,0.21,0.2155,0.2267,0.2312,0.2376,0.2456,0.2517,0.2576,0.2652,0.271,0.2774,0.2827,0.2922,0.2987,0.3046,0.312,0.314,0.3176,0.3191,0.317,0.3166,0.32,0.3201,0.3223,0.3223,0.3222,0.3222,0,0.207,0.2147,0.2231,0.2341,0.237,0.2413,0.2508,0.2554,0.2615,0.2688,0.271,0.2806,0.2886,0.2967,0.3075,0.3115,0.3187,0.3207,0.3157,0.3166,0.318,0.3178,0.3213,0.3223,0.3232,0.3232,0.3232,0,0.2076,0.212,0.2234,0.2277,0.2329,0.2397,0.2448,0.2528,0.2579,0.2681,0.2715,0.2799,0.2871,0.2996,0.3077,0.316,0.3183,0.319,0.3196,0.3175,0.3185,0.3181,0.3186,0.3187,0.3187,0.3186,0.3186,0,0.2078,0.2114,0.2184,0.2268,0.2326,0.2396,0.2468,0.25,0.2595,0.2648,0.273,0.2786,0.2896,0.2979,0.3071,0.3128,0.3173,0.3183,0.3192,0.3172,0.3142,0.3159,0.3151,0.3182,0.3183,0.3183,0.3183,0.3183,0.2067,0.211,0.2196,0.2273,0.2335,0.2401,0.245,0.2517,0.2586,0.2681,0.2725,0.2807,0.2893,0.3022,0.3077,0.3144,0.3156,0.3168,0.3172,0.3174,0.317,0.313,0.3161,0.3161,0.3161,0.3161,0.3162,0,0.2073,0.2132,0.2201,0.23,0.236,0.2396,0.2478,0.2526,0.2597,0.2673,0.2742,0.2836,0.2917,0.3003,0.309,0.3126,0.3149,0.3146,0.3145,0.3158,0.3153,0.3137,0.3126,0.3126,0.3126,0.3126,0.3126,0.3126,0.2083,0.2157,0.2203,0.2308,0.2367,0.2448,0.2491,0.2553,0.2614,0.2716,0.2783,0.2838,0.2919,0.3011,0.3087,0.3111,0.314,0.3131,0.316,0.3155,0.3158,0.316,0.3146,0.3137,0.3137,0.3159,0.316,0.316]},{"header":{"parameterUnit":"m.s-1","parameterCategory":1,"la1":30.2991,"la2":30.254,"lo1":-89.0895,"lo2":-89.0444,"dy":0.0017,"dx":0.0017,"nx":28,"ny":28,"refTime":"2024-08-02T21:00:00:Z","depth":0,"parameterNumber":3,"parameterNumberName":"V-component_of_WINDS"},"data":[0,0,0,0,0,0,0,0,0,0,0,0,0,0,0,0,0,0,0,0,0,0,0,0,0,0,0,0,0,0,0,0,0,0,0,0,0,0,0,0,0,0,0,0,0,0,0,0,0,0,0,0,0,0,0,0,0,0,3.0358,3.0358,0,3.035,3.035,3.035,3.0373,3.0374,3.0375,3.0375,3.0362,3.0361,3.036,0,0,0,0,0,0,0,0,0,0,0,0,0,3.0389,3.0388,3.0358,3.0358,3.0358,3.035,3.035,3.035,3.0373,3.0374,3.0375,3.0376,3.0362,3.0361,3.036,0,0,0,0,0,0,0,0,0,0,0,0,0,3.0378,3.0388,3.0358,3.0369,3.037,3.035,3.035,3.035,3.0373,3.0374,3.0375,3.0376,3.0363,3.0361,3.036,3.0328,0,0,3.0355,3.0354,0,0,0,0,0,0,0,0,3.0378,3.0376,3.0367,3.0368,3.0369,3.0364,3.0356,3.0343,3.0373,3.0371,3.0375,3.0377,3.0361,3.036,3.0356,3.0328,3.0327,3.0355,3.0354,3.0353,3.0353,0,0,0,0,0,0,0,3.0379,3.0377,3.0355,3.0367,3.0368,3.0372,3.0372,3.0354,3.036,3.0372,3.0373,3.0372,3.0362,3.0357,3.0356,3.0327,3.0355,3.0353,3.0352,3.0352,3.0272,3.0271,0,0,0,0,0,0,3.0379,3.0377,3.0355,3.0355,3.0377,3.0371,3.0371,3.0364,3.0361,3.0361,3.0371,3.0373,3.0359,3.0358,3.0355,3.0318,3.0353,3.0352,3.0351,3.0273,3.0271,3.027,0,0,0,0,0,0,3.038,3.0377,3.0356,3.0367,3.0364,3.0369,3.0362,3.0364,3.0359,3.036,3.0361,3.0366,3.036,3.0358,3.0335,3.0318,3.0351,3.035,3.0274,3.0272,3.0271,3.0243,0,0,0,0,0,0,3.038,3.0377,3.0366,3.0366,3.0364,3.0337,3.0361,3.0363,3.0357,3.036,3.0355,3.0356,3.0361,3.0337,3.0334,3.0316,3.0348,3.0276,3.0273,3.0271,3.0245,3.0241,3.0236,0,0,0,0,0,3.0382,3.0358,3.0366,3.0363,3.035,3.0336,3.0334,3.0342,3.0356,3.0344,3.0345,3.0356,3.0321,3.0335,3.0331,3.0313,3.0277,3.0274,3.0271,3.0248,3.0241,3.0236,0,0,0,0,0,0,3.0354,3.0358,3.0367,3.0342,3.0339,3.034,3.0325,3.0335,3.0327,3.0329,3.0338,3.0337,3.0312,3.031,3.0326,3.0282,3.0301,3.0297,3.0284,3.0278,3.0274,3.0274,3.0347,0,0,0,0,0,3.0345,3.0334,3.0338,3.0316,3.0314,3.032,3.0314,3.0321,3.0316,3.0314,3.0314,3.0308,3.0295,3.0287,3.0275,3.0246,3.0244,3.0231,3.0227,3.0223,3.0219,3.0202,3.0196,3.0261,3.0261,3.0261,0,0,3.0326,3.0327,3.032,3.0311,3.0309,3.0296,3.0318,3.0304,3.0294,3.0312,3.0291,3.029,3.0284,3.0257,3.0246,3.0255,3.0201,3.0219,3.0216,3.0215,3.0199,3.0193,3.0187,3.0259,3.026,3.026,0,0,3.0286,3.0286,3.0268,3.0266,3.0263,3.0267,3.0263,3.0262,3.0263,3.0243,3.0256,3.0243,3.0222,3.0217,3.0211,3.017,3.0179,3.0166,3.0141,3.0125,3.0119,3.0115,3.0099,3.0093,3.0162,3.0162,3.0162,0,3.0262,3.0245,3.0257,3.0242,3.0237,3.0254,3.0235,3.0232,3.0224,3.022,3.0231,3.0205,3.0202,3.0174,3.0164,3.016,3.0154,3.0165,3.012,3.0115,3.0111,3.0096,3.009,3.016,3.0161,3.0161,3.0161,0,3.0216,3.0204,3.0189,3.0184,3.0177,3.016,3.0168,3.0159,3.0167,3.0169,3.0148,3.0145,3.0134,3.0128,3.0134,3.0101,3.0107,3.0119,3.0137,3.0103,3.0089,3.0083,3.0158,3.0159,3.0159,3.016,0,0,3.0156,3.0159,3.0153,3.0151,3.0149,3.0139,3.0122,3.0113,3.0105,3.01,3.0085,3.0067,3.0078,3.0072,3.0078,3.0064,3.003,3.0077,3.0077,3.0068,2.9991,2.9982,2.9975,3.0036,3.0035,3.0034,2.9992,0,3.0116,3.0089,3.0099,3.007,3.0059,3.0075,3.006,3.0057,3.0059,3.0048,3.005,3.0037,3.0053,3.0049,3.0036,3.0037,3.0014,3.004,3.0021,3.002,3.0021,2.9968,2.9958,2.9917,2.9986,2.9985,2.9985,0,3.0065,3.0059,3.003,3.0031,3.0026,3.0013,3.0005,2.9995,2.9991,2.9993,2.9987,2.9996,2.9978,2.9998,2.9972,2.9989,2.9982,2.9981,2.998,2.9977,2.9999,2.9963,2.9905,2.9898,2.9976,2.9977,2.9978,0,3.0023,3.0008,2.9989,2.9987,2.9987,2.9977,2.9977,2.9974,2.9968,2.996,2.9956,2.9945,2.9939,2.993,2.9936,2.995,2.9909,2.9929,2.9909,2.9909,2.9898,2.9899,2.9837,2.9895,2.9895,2.9896,2.9896,0,2.9976,2.9958,2.997,2.9958,2.9937,2.9949,2.9927,2.9928,2.9926,2.9913,2.9926,2.9914,2.9922,2.991,2.9914,2.9891,2.9889,2.9889,2.989,2.9887,2.9887,2.9882,2.9884,2.9894,2.9894,2.9895,2.9895,0,2.9926,2.9934,2.9914,2.9917,2.9917,2.9901,2.9903,2.9891,2.9894,2.9878,2.9875,2.9879,2.9865,2.987,2.9855,2.9858,2.9829,2.9834,2.9831,2.9832,2.981,2.9812,2.9742,2.9733,2.9798,2.9798,2.9797,0,2.9895,2.9881,2.9883,2.9876,2.9875,2.9864,2.9858,2.9868,2.9861,2.9856,2.9844,2.9832,2.9823,2.98,2.98,2.9789,2.9793,2.9769,2.9791,2.9789,2.9791,2.9792,2.979,2.9765,2.9764,2.9763,2.9763,0,2.9839,2.9844,2.9836,2.9829,2.9822,2.9816,2.9811,2.9805,2.9815,2.9806,2.9793,2.9786,2.9771,2.9758,2.9748,2.9745,2.9755,2.9756,2.9751,2.9747,2.9745,2.9745,2.9818,2.9757,2.9758,2.9758,2.9759,2.9759,2.9797,2.9785,2.9785,2.9775,2.9773,2.9769,2.9758,2.9761,2.9751,2.9741,2.9747,2.9731,2.9727,2.9714,2.9711,2.9697,2.9706,2.9698,2.9696,2.9694,2.9691,2.9749,2.9695,2.9696,2.9696,2.9696,2.9696,0,2.9741,2.9742,2.9733,2.9727,2.9719,2.9731,2.9727,2.9719,2.9705,2.9702,2.9693,2.9677,2.9665,2.9666,2.9654,2.9643,2.9647,2.9639,2.964,2.9639,2.9684,2.969,2.9636,2.9636,2.9636,2.9636,2.9636,2.9636,2.971,2.9692,2.9696,2.9676,2.9677,2.9663,2.9659,2.9655,2.9652,2.9635,2.9626,2.9627,2.9624,2.9612,2.9601,2.9601,2.9596,2.9586,2.9588,2.963,2.9636,2.9641,2.9647,2.9585,2.9585,2.9544,2.9544,2.9543]}]]